Time,TemperatureF,DewpointF,PressureIn,WindDirection,WindDirectionDegrees,WindSpeedMPH,WindSpeedGustMPH,Humidity,HourlyPrecipIn,Conditions,Clouds,dailyrainin,SoftwareType,DateUTC
2013-06-10 00:00:00,56.5,52.4,29.85,North,355,0.0,1.0,86,0.00,,,0.00,Wunderground v.1.15,2013-06-10 05:00:00,
2013-06-10 00:10:00,56.4,52.3,29.85,North,355,0.0,1.0,86,0.00,,,0.00,Wunderground v.1.15,2013-06-10 05:10:00,
2013-06-10 00:20:00,56.2,52.4,29.85,North,355,0.0,1.0,87,0.00,,,0.00,Wunderground v.1.15,2013-06-10 05:20:00,
2013-06-10 00:25:00,56.3,52.5,29.85,North,355,0.0,1.0,87,0.00,,,0.00,Wunderground v.1.15,2013-06-10 05:25:00,
2013-06-10 00:30:00,56.2,52.4,29.85,North,355,0.0,1.0,87,0.00,,,0.00,Wunderground v.1.15,2013-06-10 05:30:00,
2013-06-10 00:40:00,56.0,52.2,29.85,North,355,0.0,1.0,87,0.00,,,0.00,Wunderground v.1.15,2013-06-10 05:40:00,
2013-06-10 00:50:00,55.3,51.5,29.85,North,355,0.0,1.0,87,0.00,,,0.00,Wunderground v.1.15,2013-06-10 05:50:00,
2013-06-10 01:00:00,55.7,52.2,29.85,North,355,0.0,1.0,88,0.00,,,0.00,Wunderground v.1.15,2013-06-10 06:00:00,
2013-06-10 01:10:00,55.2,51.7,29.85,North,355,0.0,1.0,88,0.00,,,0.00,Wunderground v.1.15,2013-06-10 06:10:00,
2013-06-10 01:20:00,55.2,51.7,29.85,North,355,0.0,1.0,88,0.00,,,0.00,Wunderground v.1.15,2013-06-10 06:20:00,
2013-06-10 01:30:00,54.3,50.8,29.85,North,355,0.0,1.0,88,0.00,,,0.00,Wunderground v.1.15,2013-06-10 06:30:00,
2013-06-10 01:40:00,53.6,50.1,29.85,North,355,0.0,1.0,88,0.00,,,0.00,Wunderground v.1.15,2013-06-10 06:40:00,
2013-06-10 01:50:00,53.5,50.0,29.84,North,355,0.0,1.0,88,0.00,,,0.00,Wunderground v.1.15,2013-06-10 06:50:00,
2013-06-10 01:55:00,53.5,50.3,29.84,North,355,0.0,1.0,89,0.00,,,0.00,Wunderground v.1.15,2013-06-10 06:55:00,
2013-06-10 02:00:00,53.3,49.8,29.84,North,355,0.0,1.0,88,0.00,,,0.00,Wunderground v.1.15,2013-06-10 07:00:00,
2013-06-10 02:10:00,53.7,50.5,29.84,North,355,0.0,1.0,89,0.00,,,0.00,Wunderground v.1.15,2013-06-10 07:10:00,
2013-06-10 02:20:00,53.1,49.6,29.84,North,355,0.0,1.0,88,0.00,,,0.00,Wunderground v.1.15,2013-06-10 07:20:00,
2013-06-10 02:30:00,53.1,49.9,29.85,North,355,1.0,1.0,89,0.00,,,0.00,Wunderground v.1.15,2013-06-10 07:30:00,
2013-06-10 02:40:00,53.1,49.9,29.85,North,355,1.0,1.0,89,0.00,,,0.00,Wunderground v.1.15,2013-06-10 07:40:00,
2013-06-10 02:45:00,53.0,49.8,29.84,North,355,0.0,1.0,89,0.00,,,0.00,Wunderground v.1.15,2013-06-10 07:45:00,
2013-06-10 02:50:00,53.2,50.3,29.84,North,355,0.0,1.0,90,0.00,,,0.00,Wunderground v.1.15,2013-06-10 07:50:00,
2013-06-10 03:00:00,52.9,49.7,29.85,North,355,0.0,1.0,89,0.00,,,0.00,Wunderground v.1.15,2013-06-10 08:00:00,
2013-06-10 03:10:00,53.0,50.1,29.85,North,355,0.0,1.0,90,0.00,,,0.00,Wunderground v.1.15,2013-06-10 08:10:00,
2013-06-10 03:20:00,52.2,49.1,29.84,North,355,0.0,1.0,89,0.00,,,0.00,Wunderground v.1.15,2013-06-10 08:20:00,
2013-06-10 03:25:00,52.1,49.0,29.85,North,355,0.0,1.0,89,0.00,,,0.00,Wunderground v.1.15,2013-06-10 08:25:00,
2013-06-10 03:35:00,51.9,49.1,29.85,North,355,0.0,1.0,90,0.00,,,0.00,Wunderground v.1.15,2013-06-10 08:35:00,
2013-06-10 03:45:00,52.0,49.2,29.84,North,355,1.0,1.0,90,0.00,,,0.00,Wunderground v.1.15,2013-06-10 08:45:00,
2013-06-10 03:50:00,52.4,49.6,29.84,North,355,1.0,1.0,90,0.00,,,0.00,Wunderground v.1.15,2013-06-10 08:50:00,
2013-06-10 04:00:00,51.7,48.6,29.84,North,355,0.0,1.0,89,0.00,,,0.00,Wunderground v.1.15,2013-06-10 09:00:00,
2013-06-10 04:10:00,51.3,48.5,29.83,North,355,1.0,1.0,90,0.00,,,0.00,Wunderground v.1.15,2013-06-10 09:10:00,
2013-06-10 04:20:00,50.8,48.0,29.83,North,355,0.0,2.0,90,0.00,,,0.00,Wunderground v.1.15,2013-06-10 09:20:00,
2013-06-10 04:25:00,50.5,47.7,29.82,North,355,1.0,2.0,90,0.00,,,0.00,Wunderground v.1.15,2013-06-10 09:25:00,
2013-06-10 04:35:00,50.6,47.8,29.83,NW,324,1.0,1.0,90,0.00,,,0.00,Wunderground v.1.15,2013-06-10 09:35:00,
2013-06-10 04:40:00,50.7,47.9,29.83,NW,324,1.0,2.0,90,0.00,,,0.00,Wunderground v.1.15,2013-06-10 09:40:00,
2013-06-10 04:50:00,50.5,47.7,29.84,NW,324,1.0,1.0,90,0.00,,,0.00,Wunderground v.1.15,2013-06-10 09:50:00,
2013-06-10 05:00:00,50.1,47.3,29.83,NW,324,0.0,1.0,90,0.00,,,0.00,Wunderground v.1.15,2013-06-10 10:00:00,
2013-06-10 05:10:00,50.3,47.8,29.84,NW,324,1.0,2.0,91,0.00,,,0.00,Wunderground v.1.15,2013-06-10 10:10:00,
2013-06-10 05:20:00,50.5,48.0,29.84,North,360,1.0,3.0,91,0.00,,,0.00,Wunderground v.1.15,2013-06-10 10:20:00,
2013-06-10 05:25:00,50.8,48.3,29.84,North,360,1.0,3.0,91,0.00,,,0.00,Wunderground v.1.15,2013-06-10 10:25:00,
2013-06-10 05:30:00,50.6,48.1,29.84,North,360,1.0,2.0,91,0.00,,,0.00,Wunderground v.1.15,2013-06-10 10:30:00,
2013-06-10 05:40:00,50.5,48.0,29.83,ENE,65,2.0,3.0,91,0.00,,,0.00,Wunderground v.1.15,2013-06-10 10:40:00,
2013-06-10 05:50:00,51.0,48.5,29.82,East,82,2.0,2.0,91,0.00,,,0.00,Wunderground v.1.15,2013-06-10 10:50:00,
2013-06-10 06:00:00,50.7,48.2,29.84,SW,231,1.0,3.0,91,0.00,,,0.00,Wunderground v.1.15,2013-06-10 11:00:00,
2013-06-10 06:10:00,50.4,47.9,29.84,WSW,237,2.0,3.0,91,0.00,,,0.00,Wunderground v.1.15,2013-06-10 11:10:00,
2013-06-10 06:15:00,50.2,47.7,29.84,WSW,237,2.0,3.0,91,0.00,,,0.00,Wunderground v.1.15,2013-06-10 11:15:00,
2013-06-10 06:20:00,50.3,47.8,29.83,WSW,237,2.0,3.0,91,0.00,,,0.00,Wunderground v.1.15,2013-06-10 11:20:00,
2013-06-10 06:30:00,50.6,48.1,29.83,SW,236,2.0,2.0,91,0.00,,,0.00,Wunderground v.1.15,2013-06-10 11:30:00,
2013-06-10 06:40:00,50.8,48.3,29.84,SW,236,1.0,1.0,91,0.00,,,0.00,Wunderground v.1.15,2013-06-10 11:40:00,
2013-06-10 06:50:00,51.5,49.3,29.84,SW,236,0.0,3.0,92,0.00,,,0.00,Wunderground v.1.15,2013-06-10 11:50:00,
2013-06-10 06:55:00,52.3,50.0,29.84,SW,236,0.0,3.0,92,0.00,,,0.00,Wunderground v.1.15,2013-06-10 11:55:00,
2013-06-10 07:05:00,53.4,51.1,29.83,SW,236,0.0,3.0,92,0.00,,,0.00,Wunderground v.1.15,2013-06-10 12:05:00,
2013-06-10 07:15:00,54.4,52.1,29.83,SW,236,0.0,3.0,92,0.00,,,0.00,Wunderground v.1.15,2013-06-10 12:15:00,
2013-06-10 07:20:00,54.7,52.4,29.83,SW,236,1.0,1.0,92,0.00,,,0.00,Wunderground v.1.15,2013-06-10 12:20:00,
2013-06-10 07:30:00,55.8,53.5,29.83,SW,236,0.0,3.0,92,0.00,,,0.00,Wunderground v.1.15,2013-06-10 12:30:00,
2013-06-10 07:40:00,57.1,54.8,29.82,SW,236,1.0,1.0,92,0.00,,,0.00,Wunderground v.1.15,2013-06-10 12:40:00,
2013-06-10 07:50:00,58.4,56.1,29.83,SW,236,0.0,3.0,92,0.00,,,0.00,Wunderground v.1.15,2013-06-10 12:50:00,
2013-06-10 08:00:00,58.9,56.3,29.83,SW,236,1.0,3.0,91,0.00,,,0.00,Wunderground v.1.15,2013-06-10 13:00:00,
2013-06-10 08:05:00,58.7,56.1,29.83,SSW,202,2.0,3.0,91,0.00,,,0.00,Wunderground v.1.15,2013-06-10 13:05:00,
2013-06-10 08:10:00,58.6,56.0,29.84,SW,234,4.0,6.0,91,0.00,,,0.00,Wunderground v.1.15,2013-06-10 13:10:00,
2013-06-10 08:20:00,58.5,55.9,29.84,SW,223,5.0,5.0,91,0.00,,,0.00,Wunderground v.1.15,2013-06-10 13:20:00,
2013-06-10 08:30:00,59.2,56.6,29.84,SW,223,3.0,3.0,91,0.00,,,0.00,Wunderground v.1.15,2013-06-10 13:30:00,
2013-06-10 08:40:00,60.1,57.5,29.84,SSW,195,3.0,4.0,91,0.00,,,0.01,Wunderground v.1.15,2013-06-10 13:40:00,
2013-06-10 08:50:00,60.9,57.9,29.84,SSW,193,4.0,6.0,90,0.00,,,0.01,Wunderground v.1.15,2013-06-10 13:50:00,
2013-06-10 08:55:00,61.4,58.4,29.84,SSW,193,4.0,6.0,90,0.00,,,0.01,Wunderground v.1.15,2013-06-10 13:55:00,
2013-06-10 09:00:00,61.9,58.6,29.83,SSW,193,4.0,4.0,89,0.00,,,0.01,Wunderground v.1.15,2013-06-10 14:00:00,
2013-06-10 09:10:00,62.9,59.6,29.83,SSW,193,3.0,3.0,89,0.00,,,0.01,Wunderground v.1.15,2013-06-10 14:10:00,
2013-06-10 09:20:00,64.1,60.5,29.83,SSW,193,2.0,3.0,88,0.00,,,0.01,Wunderground v.1.15,2013-06-10 14:20:00,
2013-06-10 09:30:00,65.5,61.2,29.83,SSW,193,2.0,3.0,86,0.00,,,0.01,Wunderground v.1.15,2013-06-10 14:30:00,
2013-06-10 09:35:00,65.9,60.9,29.83,SSW,193,2.0,3.0,84,0.00,,,0.01,Wunderground v.1.15,2013-06-10 14:35:00,
2013-06-10 09:45:00,66.9,61.2,29.83,SSW,193,3.0,4.0,82,0.00,,,0.01,Wunderground v.1.15,2013-06-10 14:45:00,
2013-06-10 09:50:00,67.2,61.2,29.83,SSW,193,3.0,4.0,81,0.00,,,0.01,Wunderground v.1.15,2013-06-10 14:50:00,
2013-06-10 10:00:00,68.1,61.0,29.84,SSW,193,3.0,3.0,78,0.00,,,0.01,Wunderground v.1.15,2013-06-10 15:00:00,
2013-06-10 10:05:00,68.7,61.2,29.84,SSW,193,3.0,6.0,77,0.00,,,0.01,Wunderground v.1.15,2013-06-10 15:05:00,
2013-06-10 10:10:00,69.2,61.7,29.84,SSW,193,3.0,3.0,77,0.00,,,0.01,Wunderground v.1.15,2013-06-10 15:10:00,
2013-06-10 10:20:00,69.5,60.5,29.84,SSW,193,3.0,3.0,73,0.00,,,0.01,Wunderground v.1.15,2013-06-10 15:20:00,
2013-06-10 10:30:00,69.9,60.1,29.84,SSW,200,4.0,6.0,71,0.00,,,0.01,Wunderground v.1.15,2013-06-10 15:30:00,
2013-06-10 10:40:00,70.7,60.8,29.84,SSW,200,4.0,4.0,71,0.00,,,0.01,Wunderground v.1.15,2013-06-10 15:40:00,
2013-06-10 10:50:00,71.2,59.7,29.84,South,177,5.0,5.0,67,0.00,,,0.01,Wunderground v.1.15,2013-06-10 15:50:00,
2013-06-10 11:00:00,72.2,60.6,29.84,South,169,5.0,7.0,67,0.00,,,0.01,Wunderground v.1.15,2013-06-10 16:00:00,
2013-06-10 11:10:00,72.5,60.9,29.84,SSW,196,4.0,4.0,67,0.00,,,0.01,Wunderground v.1.15,2013-06-10 16:10:00,
2013-06-10 11:20:00,73.1,60.6,29.83,SSE,155,6.0,6.0,65,0.00,,,0.01,Wunderground v.1.15,2013-06-10 16:20:00,
2013-06-10 11:30:00,73.5,61.0,29.83,SSW,199,5.0,5.0,65,0.00,,,0.01,Wunderground v.1.15,2013-06-10 16:30:00,
2013-06-10 11:35:00,73.6,61.5,29.83,SSE,166,5.0,5.0,66,0.00,,,0.01,Wunderground v.1.15,2013-06-10 16:35:00,
2013-06-10 11:40:00,73.9,60.5,29.83,SSE,159,5.0,7.0,63,0.00,,,0.01,Wunderground v.1.15,2013-06-10 16:40:00,
2013-06-10 11:50:00,74.6,59.3,29.82,SSE,167,6.0,6.0,59,0.00,,,0.01,Wunderground v.1.15,2013-06-10 16:50:00,
2013-06-10 12:00:00,74.7,60.8,29.82,South,180,6.0,6.0,62,0.00,,,0.01,Wunderground v.1.15,2013-06-10 17:00:00,
2013-06-10 12:10:00,75.4,59.6,29.82,SSW,193,5.0,10.0,58,0.00,,,0.01,Wunderground v.1.15,2013-06-10 17:10:00,
2013-06-10 12:15:00,75.4,59.6,29.82,SSE,157,6.0,10.0,58,0.00,,,0.01,Wunderground v.1.15,2013-06-10 17:15:00,
2013-06-10 12:25:00,76.2,59.4,29.81,South,188,5.0,10.0,56,0.00,,,0.01,Wunderground v.1.15,2013-06-10 17:25:00,
2013-06-10 12:35:00,76.5,60.1,29.81,SSE,163,6.0,10.0,57,0.00,,,0.01,Wunderground v.1.15,2013-06-10 17:35:00,
2013-06-10 12:40:00,76.8,59.4,29.80,SE,141,6.0,10.0,55,0.00,,,0.01,Wunderground v.1.15,2013-06-10 17:40:00,
2013-06-10 12:50:00,77.3,59.4,29.80,SSW,192,6.0,6.0,54,0.00,,,0.01,Wunderground v.1.15,2013-06-10 17:50:00,
2013-06-10 13:00:00,78.2,60.2,29.80,SSE,155,6.0,10.0,54,0.00,,,0.01,Wunderground v.1.15,2013-06-10 18:00:00,
2013-06-10 13:10:00,78.7,59.6,29.80,South,190,5.0,10.0,52,0.00,,,0.01,Wunderground v.1.15,2013-06-10 18:10:00,
2013-06-10 13:20:00,78.7,59.6,29.79,ESE,119,6.0,10.0,52,0.00,,,0.01,Wunderground v.1.15,2013-06-10 18:20:00,
2013-06-10 13:30:00,78.9,59.2,29.79,SSE,163,6.0,10.0,51,0.00,,,0.01,Wunderground v.1.15,2013-06-10 18:30:00,
2013-06-10 13:35:00,79.4,59.1,29.79,SE,136,5.0,10.0,50,0.00,,,0.01,Wunderground v.1.15,2013-06-10 18:35:00,
2013-06-10 13:40:00,80.1,59.8,29.78,SSE,160,6.0,10.0,50,0.00,,,0.01,Wunderground v.1.15,2013-06-10 18:40:00,
2013-06-10 13:50:00,79.8,60.1,29.78,ENE,78,5.0,5.0,51,0.00,,,0.01,Wunderground v.1.15,2013-06-10 18:50:00,
2013-06-10 14:00:00,80.5,58.4,29.78,SSE,157,6.0,10.0,47,0.00,,,0.01,Wunderground v.1.15,2013-06-10 19:00:00,
2013-06-10 14:10:00,81.1,57.7,29.77,SSE,158,5.0,10.0,45,0.00,,,0.01,Wunderground v.1.15,2013-06-10 19:10:00,
2013-06-10 14:15:00,81.6,58.8,29.77,SSE,148,5.0,10.0,46,0.00,,,0.01,Wunderground v.1.15,2013-06-10 19:15:00,
2013-06-10 14:25:00,82.4,59.5,29.76,SSE,165,5.0,10.0,46,0.00,,,0.01,Wunderground v.1.15,2013-06-10 19:25:00,
2013-06-10 14:30:00,82.5,57.7,29.76,South,183,6.0,6.0,43,0.00,,,0.01,Wunderground v.1.15,2013-06-10 19:30:00,
2013-06-10 14:40:00,81.9,56.6,29.75,SSW,198,8.0,10.0,42,0.00,,,0.01,Wunderground v.1.15,2013-06-10 19:40:00,
2013-06-10 14:50:00,82.7,57.9,29.75,SSE,154,7.0,11.0,43,0.00,,,0.01,Wunderground v.1.15,2013-06-10 19:50:00,
2013-06-10 15:00:00,83.1,57.6,29.75,SSE,159,8.0,11.0,42,0.00,,,0.01,Wunderground v.1.15,2013-06-10 20:00:00,
2013-06-10 15:05:00,83.5,56.6,29.75,South,186,8.0,11.0,40,0.00,,,0.01,Wunderground v.1.15,2013-06-10 20:05:00,
2013-06-10 15:15:00,83.5,57.3,29.75,South,178,7.0,10.0,41,0.00,,,0.01,Wunderground v.1.15,2013-06-10 20:15:00,
2013-06-10 15:20:00,84.0,57.1,29.75,SSE,158,7.0,10.0,40,0.00,,,0.01,Wunderground v.1.15,2013-06-10 20:20:00,
2013-06-10 15:30:00,84.4,58.8,29.75,SSE,162,7.0,7.0,42,0.00,,,0.01,Wunderground v.1.15,2013-06-10 20:30:00,
2013-06-10 15:40:00,84.6,54.7,29.75,SSW,193,7.0,7.0,36,0.00,,,0.01,Wunderground v.1.15,2013-06-10 20:40:00,
2013-06-10 15:45:00,84.7,57.7,29.74,South,174,8.0,8.0,40,0.00,,,0.01,Wunderground v.1.15,2013-06-10 20:45:00,
2013-06-10 15:50:00,84.8,56.4,29.75,SE,142,7.0,10.0,38,0.00,,,0.01,Wunderground v.1.15,2013-06-10 20:50:00,
2013-06-10 16:00:00,84.3,55.9,29.74,SSW,207,10.0,12.0,38,0.00,,,0.01,Wunderground v.1.15,2013-06-10 21:00:00,
2013-06-10 16:10:00,83.4,53.6,29.75,SSW,204,10.0,10.0,36,0.00,,,0.01,Wunderground v.1.15,2013-06-10 21:10:00,
2013-06-10 16:20:00,82.9,57.5,29.74,SSW,213,9.0,14.0,42,0.00,,,0.01,Wunderground v.1.15,2013-06-10 21:20:00,
2013-06-10 16:30:00,82.2,57.5,29.74,SSE,165,8.0,8.0,43,0.00,,,0.01,Wunderground v.1.15,2013-06-10 21:30:00,
2013-06-10 16:35:00,82.8,58.7,29.74,South,170,7.0,10.0,44,0.00,,,0.01,Wunderground v.1.15,2013-06-10 21:35:00,
2013-06-10 16:40:00,83.4,59.2,29.73,SSE,167,7.0,10.0,44,0.00,,,0.01,Wunderground v.1.15,2013-06-10 21:40:00,
2013-06-10 16:50:00,84.4,59.5,29.73,South,175,7.0,10.0,43,0.00,,,0.01,Wunderground v.1.15,2013-06-10 21:50:00,
2013-06-10 17:00:00,84.4,56.7,29.73,SSW,202,9.0,10.0,39,0.00,,,0.01,Wunderground v.1.15,2013-06-10 22:00:00,
2013-06-10 17:05:00,84.6,56.2,29.73,SSE,150,11.0,11.0,38,0.00,,,0.01,Wunderground v.1.15,2013-06-10 22:05:00,
2013-06-10 17:15:00,84.6,57.6,29.73,South,173,10.0,13.0,40,0.00,,,0.01,Wunderground v.1.15,2013-06-10 22:15:00,
2013-06-10 17:25:00,84.2,57.9,29.72,South,182,9.0,10.0,41,0.00,,,0.01,Wunderground v.1.15,2013-06-10 22:25:00,
2013-06-10 17:30:00,84.5,58.9,29.72,SSW,193,8.0,8.0,42,0.00,,,0.01,Wunderground v.1.15,2013-06-10 22:30:00,
2013-06-10 17:40:00,83.5,57.3,29.72,SSW,192,9.0,9.0,41,0.00,,,0.01,Wunderground v.1.15,2013-06-10 22:40:00,
2013-06-10 17:50:00,82.9,58.1,29.71,SSE,155,7.0,10.0,43,0.00,,,0.01,Wunderground v.1.15,2013-06-10 22:50:00,
2013-06-10 17:55:00,83.2,58.4,29.70,SSE,153,8.0,10.0,43,0.00,,,0.01,Wunderground v.1.15,2013-06-10 22:55:00,
2013-06-10 18:05:00,84.5,59.5,29.72,SSW,198,6.0,22.0,43,0.00,,,0.01,Wunderground v.1.15,2013-06-10 23:05:00,
2013-06-10 18:10:00,84.4,58.8,29.72,South,169,6.0,6.0,42,0.00,,,0.01,Wunderground v.1.15,2013-06-10 23:10:00,
2013-06-10 18:20:00,84.7,59.1,29.71,SSE,167,6.0,22.0,42,0.00,,,0.01,Wunderground v.1.15,2013-06-10 23:20:00,
2013-06-10 18:30:00,84.6,58.3,29.71,SSE,166,7.0,22.0,41,0.00,,,0.01,Wunderground v.1.15,2013-06-10 23:30:00,
2013-06-10 18:40:00,84.4,58.1,29.71,South,171,6.0,6.0,41,0.00,,,0.01,Wunderground v.1.15,2013-06-10 23:40:00,
2013-06-10 18:45:00,84.6,59.0,29.71,SSE,167,6.0,22.0,42,0.00,,,0.01,Wunderground v.1.15,2013-06-10 23:45:00,
2013-06-10 18:50:00,84.2,57.3,29.71,SE,140,5.0,22.0,40,0.00,,,0.01,Wunderground v.1.15,2013-06-10 23:50:00,
2013-06-10 19:00:00,84.4,58.1,29.71,SSW,199,5.0,5.0,41,0.00,,,0.01,Wunderground v.1.15,2013-06-11 00:00:00,
2013-06-10 19:10:00,84.7,57.7,29.71,SSW,200,6.0,6.0,40,0.00,,,0.01,Wunderground v.1.15,2013-06-11 00:10:00,
2013-06-10 19:20:00,84.6,57.6,29.71,SSE,159,6.0,22.0,40,0.00,,,0.01,Wunderground v.1.15,2013-06-11 00:20:00,
2013-06-10 19:25:00,84.6,57.6,29.71,South,173,6.0,22.0,40,0.00,,,0.01,Wunderground v.1.15,2013-06-11 00:25:00,
2013-06-10 19:35:00,84.5,57.5,29.71,South,170,5.0,22.0,40,0.00,,,0.01,Wunderground v.1.15,2013-06-11 00:35:00,
2013-06-10 19:40:00,84.3,57.3,29.71,South,176,5.0,22.0,40,0.00,,,0.01,Wunderground v.1.15,2013-06-11 00:40:00,
2013-06-10 19:50:00,84.1,56.5,29.70,SSW,192,6.0,6.0,39,0.00,,,0.01,Wunderground v.1.15,2013-06-11 00:50:00,
2013-06-10 20:00:00,83.6,57.4,29.70,SSE,162,4.0,22.0,41,0.00,,,0.01,Wunderground v.1.15,2013-06-11 01:00:00,
2013-06-10 20:05:00,83.3,57.1,29.70,SSE,162,5.0,22.0,41,0.00,,,0.01,Wunderground v.1.15,2013-06-11 01:05:00,
2013-06-10 20:15:00,82.8,57.4,29.70,SSE,155,4.0,22.0,42,0.00,,,0.01,Wunderground v.1.15,2013-06-11 01:15:00,
2013-06-10 20:20:00,82.8,58.0,29.70,SSE,149,3.0,3.0,43,0.00,,,0.01,Wunderground v.1.15,2013-06-11 01:20:00,
2013-06-10 20:30:00,82.1,58.7,29.70,SE,142,1.0,1.0,45,0.00,,,0.01,Wunderground v.1.15,2013-06-11 01:30:00,
2013-06-10 20:40:00,81.1,57.7,29.70,SE,142,0.0,22.0,45,0.00,,,0.01,Wunderground v.1.15,2013-06-11 01:40:00,
2013-06-10 20:45:00,80.3,57.0,29.70,SE,142,1.0,22.0,45,0.00,,,0.01,Wunderground v.1.15,2013-06-11 01:45:00,
2013-06-10 20:50:00,79.6,58.2,29.70,ESE,121,1.0,22.0,48,0.00,,,0.01,Wunderground v.1.15,2013-06-11 01:50:00,
2013-06-10 21:00:00,78.4,57.7,29.70,ESE,106,3.0,3.0,49,0.00,,,0.01,Wunderground v.1.15,2013-06-11 02:00:00,
2013-06-10 21:10:00,77.5,57.9,29.70,ESE,114,3.0,3.0,51,0.00,,,0.01,Wunderground v.1.15,2013-06-11 02:10:00,
2013-06-10 21:20:00,76.3,58.4,29.71,East,101,3.0,22.0,54,0.00,,,0.01,Wunderground v.1.15,2013-06-11 02:20:00,
2013-06-10 21:25:00,75.8,58.5,29.71,East,91,4.0,22.0,55,0.00,,,0.01,Wunderground v.1.15,2013-06-11 02:25:00,
2013-06-10 21:35:00,75.1,58.8,29.71,East,98,4.0,22.0,57,0.00,,,0.01,Wunderground v.1.15,2013-06-11 02:35:00,
2013-06-10 21:40:00,74.8,58.5,29.71,East,92,4.0,22.0,57,0.00,,,0.01,Wunderground v.1.15,2013-06-11 02:40:00,
2013-06-10 21:50:00,74.4,58.7,29.72,East,96,4.0,22.0,58,0.00,,,0.01,Wunderground v.1.15,2013-06-11 02:50:00,
2013-06-10 22:00:00,74.0,58.8,29.72,East,92,4.0,22.0,59,0.00,,,0.01,Wunderground v.1.15,2013-06-11 03:00:00,
2013-06-10 22:10:00,73.9,58.7,29.73,East,94,5.0,22.0,59,0.00,,,0.01,Wunderground v.1.15,2013-06-11 03:10:00,
2013-06-10 22:15:00,73.7,58.9,29.73,East,90,5.0,22.0,60,0.00,,,0.01,Wunderground v.1.15,2013-06-11 03:15:00,
2013-06-10 22:20:00,73.5,58.8,29.73,East,89,4.0,22.0,60,0.00,,,0.01,Wunderground v.1.15,2013-06-11 03:20:00,
2013-06-10 22:30:00,73.8,59.0,29.73,East,96,5.0,22.0,60,0.00,,,0.01,Wunderground v.1.15,2013-06-11 03:30:00,
2013-06-10 22:40:00,73.5,59.2,29.73,East,94,4.0,22.0,61,0.00,,,0.01,Wunderground v.1.15,2013-06-11 03:40:00,
2013-06-10 22:50:00,73.2,59.4,29.74,East,93,4.0,22.0,62,0.00,,,0.01,Wunderground v.1.15,2013-06-11 03:50:00,
2013-06-10 23:00:00,73.0,59.7,29.74,East,94,4.0,22.0,63,0.00,,,0.01,Wunderground v.1.15,2013-06-11 04:00:00,
2013-06-10 23:05:00,72.9,59.6,29.74,ESE,117,4.0,22.0,63,0.00,,,0.01,Wunderground v.1.15,2013-06-11 04:05:00,
2013-06-10 23:10:00,72.8,59.9,29.74,East,94,3.0,3.0,64,0.00,,,0.01,Wunderground v.1.15,2013-06-11 04:10:00,
2013-06-10 23:15:00,72.6,59.7,29.75,East,94,3.0,4.0,64,0.00,,,0.01,Wunderground v.1.15,2013-06-11 04:15:00,
2013-06-10 23:20:00,72.5,60.1,29.75,East,91,2.0,2.0,65,0.00,,,0.01,Wunderground v.1.15,2013-06-11 04:20:00,
2013-06-10 23:30:00,72.0,60.0,29.75,ENE,62,1.0,22.0,66,0.00,,,0.01,Wunderground v.1.15,2013-06-11 04:30:00,
2013-06-10 23:40:00,71.7,59.7,29.75,SE,132,2.0,22.0,66,0.00,,,0.01,Wunderground v.1.15,2013-06-11 04:40:00,
2013-06-10 23:45:00,71.7,60.2,29.75,SE,134,2.0,22.0,67,0.00,,,0.01,Wunderground v.1.15,2013-06-11 04:45:00,
2013-06-10 23:50:00,71.7,60.2,29.75,East,91,3.0,22.0,67,0.00,,,0.01,Wunderground v.1.15,2013-06-11 04:50:00,
2013-06-10 23:55:00,71.4,59.9,29.75,East,95,4.0,22.0,67,0.00,,,0.01,Wunderground v.1.15,2013-06-11 04:55:00,